Location: Newark
(48.3453°N, 0.5589°E)
Time: 10:56:23
(UTC+00:00)

A-11 Canister half - All Passes

Search period start: 06 December 2019 00:00
Search period end: 16 December 2019 00:00
Orbit: 1515 x 1685 km, 47.2° (Epoch: 05 December)

Date Brightness Start Highest point End Pass type
(mag) Time Alt. Az. Time Alt. Az. Time Alt. Az.
06 Dec - 11:36:41 10° S 11:44:14 27° SE 11:51:58 10° E daylight
06 Dec - 13:38:15 10° SW 13:47:49 62° SSE 13:57:42 10° ENE daylight
06 Dec - 15:42:39 10° W 15:52:38 85° S 16:02:51 10° E daylight
06 Dec - 17:47:38 10° WNW 17:57:37 70° SSW 18:07:42 10° ESE visible
06 Dec - 19:52:56 10° WNW 20:01:36 34° SW 20:10:16 10° SSE visible
07 Dec - 11:14:08 10° S 11:21:25 25° SE 11:28:53 10° E daylight
07 Dec - 13:15:25 10° SW 13:24:54 60° SSE 13:34:44 10° ENE daylight
07 Dec - 15:19:44 10° W 15:29:40 85° S 15:39:53 10° E daylight
07 Dec - 17:24:42 10° W 17:34:41 71° SSW 17:44:47 10° ESE visible
07 Dec - 19:29:56 10° WNW 19:38:44 36° SW 19:47:34 10° SSE visible
08 Dec - 10:51:36 10° S 10:58:36 23° SE 11:05:47 10° E daylight
08 Dec - 12:52:36 10° SW 13:02:00 58° SSE 13:11:45 10° ENE daylight
08 Dec - 14:56:49 10° W 15:06:43 84° S 15:16:54 10° E daylight
08 Dec - 17:01:46 10° W 17:11:44 73° SSW 17:21:52 10° ESE visible
08 Dec - 19:06:56 10° WNW 19:15:52 37° SW 19:24:50 10° SSE visible
09 Dec - 10:29:06 10° S 10:35:48 22° SE 10:42:39 10° E daylight
09 Dec - 12:29:47 10° SW 12:39:07 56° SSE 12:48:47 10° ENE daylight
09 Dec - 14:33:54 10° W 14:43:45 84° S 14:53:56 10° E daylight
09 Dec - 16:38:50 10° W 16:48:48 74° SSW 16:58:56 10° ESE visible
09 Dec - 18:43:57 10° WNW 18:53:00 39° SW 19:02:06 10° SSE visible
09 Dec - 20:53:22 10° WSW 20:55:45 11° WSW 20:58:07 10° SW visible
10 Dec - 10:06:38 10° S 10:13:00 20° SE 10:19:30 10° E daylight
10 Dec - 12:06:58 10° SW 12:16:13 54° SSE 12:25:49 10° ENE daylight
10 Dec - 14:11:00 10° WSW 14:20:49 83° S 14:30:58 10° E daylight
10 Dec - 16:15:55 10° W 16:25:51 76° SSW 16:36:00 10° ESE daylight
10 Dec - 18:20:59 10° WNW 18:30:07 41° SW 18:39:20 10° SSE visible
10 Dec - 20:29:28 10° W 20:32:58 12° WSW 20:36:27 10° SW visible
11 Dec - 09:44:13 10° SSE 09:50:12 19° SE 09:56:19 10° E daylight
11 Dec - 11:44:11 10° SW 11:53:21 52° SSE 12:02:50 10° ENE daylight
11 Dec - 13:48:05 10° WSW 13:57:52 82° S 14:08:00 10° E daylight
11 Dec - 15:52:59 10° W 16:02:55 77° SSW 16:13:04 10° ESE daylight
11 Dec - 17:58:01 10° WNW 18:07:14 43° SW 18:16:34 10° SSE visible
11 Dec - 20:05:53 10° W 20:10:10 13° WSW 20:14:28 10° SSW visible
12 Dec - 09:21:51 10° SSE 09:27:25 17° SE 09:33:05 10° E daylight
12 Dec - 11:21:25 10° SW 11:30:28 50° SE 11:39:51 10° ENE daylight
12 Dec - 13:25:10 10° WSW 13:34:55 81° S 13:45:01 10° E daylight
12 Dec - 15:30:04 10° W 15:39:57 79° SSW 15:50:07 10° ESE daylight
12 Dec - 17:35:03 10° WNW 17:44:21 45° SW 17:53:46 10° SSE visible
12 Dec - 19:42:27 10° W 19:47:22 15° SW 19:52:19 10° SSW visible
13 Dec - 08:59:33 10° SSE 09:04:38 16° SE 09:09:48 10° E daylight
13 Dec - 10:58:38 10° SW 11:07:36 48° SE 11:16:53 10° ENE daylight
13 Dec - 13:02:16 10° WSW 13:11:59 80° SSE 13:22:03 10° E daylight
13 Dec - 15:07:08 10° W 15:17:01 80° SSW 15:27:10 10° ESE daylight
13 Dec - 17:12:06 10° WNW 17:21:28 47° SW 17:30:58 10° SE visible
13 Dec - 19:19:07 10° W 19:24:34 16° SW 19:30:03 10° SSW visible
14 Dec - 08:37:20 10° SSE 08:41:51 14° ESE 08:46:27 10° E daylight
14 Dec - 10:35:53 10° SSW 10:44:44 45° SE 10:53:54 10° ENE daylight
14 Dec - 12:39:23 10° WSW 12:49:02 79° SSE 12:59:04 10° E daylight
14 Dec - 14:44:13 10° W 14:54:04 81° SSW 15:04:13 10° ESE daylight
14 Dec - 16:49:10 10° WNW 16:58:35 49° SW 17:08:09 10° SE visible
14 Dec - 18:55:52 10° W 19:01:45 17° SW 19:07:42 10° SSW visible
15 Dec - 08:15:14 10° SSE 08:19:05 13° ESE 08:22:59 10° E daylight
15 Dec - 10:13:08 10° SSW 10:21:52 43° SE 10:30:55 10° ENE daylight
15 Dec - 12:16:29 10° WSW 12:26:07 78° SSE 12:36:07 10° E daylight
15 Dec - 14:21:18 10° W 14:31:08 82° S 14:41:15 10° ESE daylight
15 Dec - 16:26:14 10° WNW 16:35:41 51° SSW 16:45:20 10° SE visible
15 Dec - 18:32:40 10° W 18:38:57 19° SW 18:45:17 10° SSW visible
